| time (UTC) | temp C | wind direction | speed KPH | gust KPH | rain 1hr cm | rain 24hr cm | rain mn cm | humidity % | barometer mb |
| 20260504033030 | 12 | 194 | 1.6 | 9.7 | 0.00 | 0.00 | 0.00 | 55 | 1012.4 |
| 20260504032530 | 12 | 184 | 3.2 | 14.5 | 0.00 | 0.00 | 0.00 | 55 | 1012.4 |
| 20260504032029 | 12 | 188 | 4.8 | 17.7 | 0.00 | 0.00 | 0.00 | 55 | 1012.4 |
| 20260504031529 | 12 | 179 | 6.4 | 12.9 | 0.00 | 0.00 | 0.00 | 55 | 1012.4 |
| 20260504031026 | 12 | 202 | 3.2 | 12.9 | 0.00 | 0.00 | 0.00 | 55 | 1012.4 |
| 20260504030526 | 12 | 180 | 4.8 | 14.5 | 0.00 | 0.00 | 0.00 | 54 | 1012.4 |
| 20260504030025 | 12 | 188 | 4.8 | 19.3 | 0.00 | 0.00 | 0.00 | 54 | 1012.4 |
| 20260504025525 | 13 | 196 | 4.8 | 19.3 | 0.00 | 0.00 | 0.00 | 54 | 1012.4 |
| 20260504025024 | 13 | 188 | 8.0 | 16.1 | 0.00 | 0.00 | 0.00 | 54 | 1012.5 |
| 20260504024524 | 13 | 200 | 6.4 | 16.1 | 0.00 | 0.00 | 0.00 | 54 | 1012.4 |
| 20260504024022 | 13 | 203 | 3.2 | 17.7 | 0.00 | 0.00 | 0.00 | 53 | 1012.4 |
| 20260504023522 | 13 | 205 | 8.0 | 16.1 | 0.00 | 0.00 | 0.00 | 53 | 1012.4 |
| 20260504023021 | 13 | 192 | 4.8 | 14.5 | 0.00 | 0.00 | 0.00 | 53 | 1012.4 |
| 20260504022524 | 13 | 208 | 6.4 | 17.7 | 0.00 | 0.00 | 0.00 | 53 | 1012.4 |
| 20260504022021 | 13 | 219 | 6.4 | 17.7 | 0.00 | 0.00 | 0.00 | 53 | 1012.4 |
| 20260504021520 | 13 | 211 | 8.0 | 19.3 | 0.00 | 0.00 | 0.00 | 53 | 1012.4 |
| 20260504021019 | 13 | 193 | 6.4 | 19.3 | 0.00 | 0.00 | 0.00 | 53 | 1012.4 |
| 20260504020519 | 13 | 185 | 4.8 | 14.5 | 0.00 | 0.00 | 0.00 | 53 | 1012.5 |
| 20260504020020 | 13 | 197 | 3.2 | 17.7 | 0.00 | 0.00 | 0.00 | 53 | 1012.5 |
| 20260504015519 | 13 | 191 | 4.8 | 19.3 | 0.00 | 0.00 | 0.00 | 53 | 1012.4 |
| 20260504015021 | 13 | 182 | 4.8 | 19.3 | 0.00 | 0.00 | 0.00 | 54 | 1012.4 |
| 20260504014524 | 13 | 202 | 8.0 | 17.7 | 0.00 | 0.00 | 0.00 | 54 | 1012.4 |
| 20260504014017 | 13 | 182 | 4.8 | 16.1 | 0.00 | 0.00 | 0.00 | 55 | 1012.5 |
| 20260504013516 | 13 | 193 | 4.8 | 16.1 | 0.00 | 0.00 | 0.00 | 55 | 1012.4 |
| 20260504013015 | 13 | 187 | 3.2 | 14.5 | 0.00 | 0.00 | 0.00 | 55 | 1012.5 |
| 20260504012515 | 13 | 168 | 3.2 | 14.5 | 0.00 | 0.00 | 0.00 | 55 | 1012.6 |
| 20260504012014 | 13 | 173 | 0.0 | 11.3 | 0.00 | 0.00 | 0.00 | 55 | 1012.6 |
| 20260504011512 | 13 | 175 | 0.0 | 11.3 | 0.00 | 0.00 | 0.00 | 54 | 1012.6 |
| 20260504011011 | 13 | 172 | 0.0 | 9.7 | 0.00 | 0.00 | 0.00 | 53 | 1012.6 |
| 20260504010510 | 13 | 182 | 4.8 | 12.9 | 0.00 | 0.00 | 0.00 | 53 | 1012.7 |
| 20260504010010 | 13 | 198 | 1.6 | 12.9 | 0.00 | 0.00 | 0.00 | 53 | 1012.7 |
| 20260504005512 | 13 | 209 | 4.8 | 12.9 | 0.00 | 0.00 | 0.00 | 53 | 1012.6 |
| 20260504005010 | 13 | 188 | 4.8 | 12.9 | 0.00 | 0.00 | 0.00 | 53 | 1012.6 |
| 20260504004517 | 14 | 192 | 1.6 | 11.3 | 0.00 | 0.00 | 0.00 | 54 | 1012.6 |
| 20260504004008 | 14 | 196 | 1.6 | 11.3 | 0.00 | 0.00 | 0.00 | 54 | 1012.6 |
| 20260504003511 | 14 | 217 | 0.0 | 0.0 | 0.00 | 0.00 | 0.00 | 54 | 1012.7 |
| 20260504003007 | 14 | 184 | 0.0 | 0.0 | 0.00 | 0.00 | 0.00 | 54 | 1012.7 |
| 20260504002506 | 14 | 180 | 0.0 | 0.0 | 0.00 | 0.00 | 0.00 | 53 | 1012.6 |
| 20260504002104 | 14 | 187 | 0.0 | 0.0 | 0.00 | 0.00 | 0.00 | 53 | 1012.7 |
| 20260504001504 | 15 | 188 | 0.0 | 0.0 | 0.00 | 0.00 | 0.00 | 53 | 1012.8 |
| 20260504001003 | 15 | 189 | 0.0 | 1.6 | 0.00 | 0.00 | 0.00 | 53 | 1012.8 |
| 20260504000503 | 15 | 190 | 0.0 | 11.3 | 0.00 | 0.00 | 0.00 | 52 | 1012.8 |
| 20260504000002 | 15 | 193 | 0.0 | 11.3 | 0.00 | 0.00 | 0.00 | 52 | 1012.8 |
| 20260503235501 | 15 | 209 | 0.0 | 12.9 | 0.00 | 0.00 | 0.00 | 52 | 1012.8 |
| 20260503235106 | 15 | 179 | 3.2 | 12.9 | 0.00 | 0.00 | 0.00 | 52 | 1012.9 |
| 20260503234628 | 15 | 219 | 1.6 | 12.9 | 0.00 | 0.00 | 0.00 | 53 | 1012.9 |
| 20260503234502 | 15 | 212 | 0.0 | 1.6 | 0.00 | 0.00 | 0.00 | 53 | 1012.9 |
| 20260503234103 | 15 | 197 | 0.0 | 1.6 | 0.00 | 0.00 | 0.00 | 53 | 1012.9 |
| 20260503233558 | 15 | 200 | 0.0 | 12.9 | 0.00 | 0.00 | 0.00 | 53 | 1013.0 |
| 20260503233057 | 15 | 217 | 0.0 | 12.9 | 0.00 | 0.00 | 0.00 | 52 | 1013.0 |
| 20260503232556 | 15 | 202 | 4.8 | 12.9 | 0.00 | 0.00 | 0.00 | 52 | 1013.1 |
| 20260503232057 | 15 | 207 | 1.6 | 11.3 | 0.00 | 0.00 | 0.00 | 53 | 1013.1 |
| 20260503231556 | 15 | 209 | 0.0 | 11.3 | 0.00 | 0.00 | 0.00 | 52 | 1013.1 |
| 20260503231055 | 15 | 188 | 1.6 | 11.3 | 0.00 | 0.00 | 0.00 | 52 | 1013.1 |
| 20260503230557 | 15 | 196 | 0.0 | 9.7 | 0.00 | 0.00 | 0.00 | 52 | 1013.1 |
| 20260503230054 | 16 | 190 | 1.6 | 9.7 | 0.00 | 0.00 | 0.00 | 52 | 1013.1 |
| 20260503225552 | 16 | 199 | 0.0 | 8.0 | 0.00 | 0.00 | 0.00 | 51 | 1013.1 |
| 20260503225053 | 16 | 207 | 1.6 | 9.7 | 0.00 | 0.00 | 0.00 | 51 | 1013.1 |
| 20260503224551 | 16 | 209 | 0.0 | 9.7 | 0.00 | 0.00 | 0.00 | 51 | 1013.0 |
| 20260503224052 | 16 | 200 | 0.0 | 9.7 | 0.00 | 0.00 | 0.00 | 51 | 1013.1 |
| 20260503223551 | 16 | 224 | 1.6 | 14.5 | 0.00 | 0.00 | 0.00 | 51 | 1013.1 |
| 20260503223050 | 16 | 204 | 4.8 | 16.1 | 0.00 | 0.00 | 0.00 | 50 | 1013.1 |
| 20260503222552 | 16 | 212 | 4.8 | 17.7 | 0.00 | 0.00 | 0.00 | 50 | 1013.1 |
| 20260503222048 | 16 | 190 | 0.0 | 12.9 | 0.00 | 0.00 | 0.00 | 50 | 1013.2 |
| 20260503221556 | 16 | 211 | 3.2 | 12.9 | 0.00 | 0.00 | 0.00 | 50 | 1013.1 |
| 20260503221047 | 16 | 232 | 4.8 | 12.9 | 0.00 | 0.00 | 0.00 | 50 | 1013.2 |
| 20260503220547 | 16 | 201 | 3.2 | 11.3 | 0.00 | 0.00 | 0.00 | 50 | 1013.2 |
| 20260503220047 | 16 | 199 | 0.0 | 1.6 | 0.00 | 0.00 | 0.00 | 49 | 1013.2 |
| 20260503215547 | 17 | 193 | 0.0 | 0.0 | 0.00 | 0.00 | 0.00 | 49 | 1013.2 |
| 20260503215046 | 17 | 196 | 0.0 | 0.0 | 0.00 | 0.00 | 0.00 | 49 | 1013.2 |
| 20260503214546 | 17 | 213 | 0.0 | 0.0 | 0.00 | 0.00 | 0.00 | 49 | 1013.3 |
| 20260503214050 | 17 | 208 | 0.0 | 0.0 | 0.00 | 0.00 | 0.00 | 49 | 1013.2 |
| 20260503213546 | 17 | 209 | 0.0 | 0.0 | 0.00 | 0.00 | 0.00 | 48 | 1013.2 |
| 20260503213046 | 17 | 209 | 0.0 | 0.0 | 0.00 | 0.00 | 0.00 | 48 | 1013.2 |
| 20260503212545 | 17 | 213 | 0.0 | 0.0 | 0.00 | 0.00 | 0.00 | 47 | 1013.2 |
| 20260503212044 | 17 | 213 | 0.0 | 0.0 | 0.00 | 0.00 | 0.00 | 47 | 1013.2 |
| 20260503211545 | 17 | 208 | 0.0 | 0.0 | 0.00 | 0.00 | 0.00 | 46 | 1013.2 |
| 20260503211044 | 17 | 208 | 0.0 | 0.0 | 0.00 | 0.00 | 0.00 | 46 | 1013.3 |
| 20260503210545 | 18 | 199 | 0.0 | 8.0 | 0.00 | 0.00 | 0.00 | 46 | 1013.2 |
| 20260503210045 | 18 | 229 | 0.0 | 9.7 | 0.00 | 0.00 | 0.00 | 46 | 1013.2 |
| 20260503205550 | 18 | 223 | 0.0 | 8.0 | 0.00 | 0.00 | 0.00 | 45 | 1013.3 |
| 20260503205045 | 18 | 207 | 0.0 | 6.4 | 0.00 | 0.00 | 0.00 | 45 | 1013.3 |
| 20260503204546 | 18 | 209 | 1.6 | 11.3 | 0.00 | 0.00 | 0.00 | 44 | 1013.3 |
| 20260503204044 | 18 | 195 | 1.6 | 11.3 | 0.00 | 0.00 | 0.00 | 44 | 1013.3 |
| 20260503203544 | 18 | 188 | 0.0 | 9.7 | 0.00 | 0.00 | 0.00 | 44 | 1013.2 |
| 20260503203054 | 18 | 171 | 0.0 | 11.3 | 0.00 | 0.00 | 0.00 | 44 | 1013.2 |
| 20260503202643 | 18 | 184 | 4.8 | 12.9 | 0.00 | 0.00 | 0.00 | 43 | 1013.2 |
| 20260503202043 | 19 | 206 | 1.6 | 12.9 | 0.00 | 0.00 | 0.00 | 43 | 1013.2 |
| 20260503201548 | 19 | 202 | 0.0 | 16.1 | 0.00 | 0.00 | 0.00 | 42 | 1013.2 |
| 20260503201043 | 19 | 205 | 3.2 | 16.1 | 0.00 | 0.00 | 0.00 | 42 | 1013.2 |
| 20260503200542 | 19 | 201 | 6.4 | 14.5 | 0.00 | 0.00 | 0.00 | 42 | 1013.2 |
| 20260503200042 | 20 | 212 | 4.8 | 19.3 | 0.00 | 0.00 | 0.00 | 41 | 1013.2 |
| 20260503195546 | 20 | 213 | 3.2 | 14.5 | 0.00 | 0.00 | 0.00 | 41 | 1013.3 |
| 20260503195044 | 20 | 193 | 0.0 | 17.7 | 0.00 | 0.00 | 0.00 | 41 | 1013.3 |
| 20260503194550 | 20 | 201 | 6.4 | 19.3 | 0.00 | 0.00 | 0.00 | 40 | 1013.3 |
| 20260503194042 | 20 | 194 | 8.0 | 24.1 | 0.00 | 0.00 | 0.00 | 40 | 1013.3 |
| 20260503193542 | 20 | 181 | 9.7 | 24.1 | 0.00 | 0.00 | 0.00 | 39 | 1013.3 |
| 20260503193043 | 20 | 207 | 6.4 | 24.1 | 0.00 | 0.00 | 0.00 | 39 | 1013.3 |
| 20260503192540 | 20 | 188 | 9.7 | 24.1 | 0.00 | 0.00 | 0.00 | 39 | 1013.3 |
| 20260503192040 | 20 | 217 | 6.4 | 22.5 | 0.00 | 0.00 | 0.00 | 39 | 1013.3 |
| 20260503191540 | 20 | 169 | 12.9 | 24.1 | 0.00 | 0.00 | 0.00 | 39 | 1013.3 |
| 20260503191042 | 20 | 165 | 9.7 | 24.1 | 0.00 | 0.00 | 0.00 | 39 | 1013.3 |
| 20260503190540 | 21 | 201 | 3.2 | 17.7 | 0.00 | 0.00 | 0.00 | 39 | 1013.3 |
| 20260503190045 | 21 | 186 | 6.4 | 17.7 | 0.00 | 0.00 | 0.00 | 39 | 1013.3 |
| 20260503185539 | 21 | 187 | 8.0 | 19.3 | 0.00 | 0.00 | 0.00 | 39 | 1013.2 |
| 20260503185039 | 21 | 232 | 8.0 | 19.3 | 0.00 | 0.00 | 0.00 | 38 | 1013.2 |
| 20260503184539 | 21 | 202 | 4.8 | 17.7 | 0.00 | 0.00 | 0.00 | 38 | 1013.2 |
| 20260503184039 | 21 | 202 | 3.2 | 16.1 | 0.00 | 0.00 | 0.00 | 38 | 1013.1 |
| 20260503183539 | 21 | 188 | 1.6 | 12.9 | 0.00 | 0.00 | 0.00 | 37 | 1013.1 |
| 20260503183038 | 21 | 178 | 1.6 | 16.1 | 0.00 | 0.00 | 0.00 | 37 | 1013.0 |
| 20260503182538 | 22 | 177 | 4.8 | 16.1 | 0.00 | 0.00 | 0.00 | 36 | 1013.0 |
| 20260503182038 | 22 | 196 | 4.8 | 19.3 | 0.00 | 0.00 | 0.00 | 36 | 1012.9 |
| 20260503181639 | 22 | 192 | 8.0 | 20.9 | 0.00 | 0.00 | 0.00 | 35 | 1013.0 |
| 20260503181037 | 22 | 202 | 6.4 | 20.9 | 0.00 | 0.00 | 0.00 | 35 | 1012.9 |
| 20260503180537 | 22 | 211 | 6.4 | 17.7 | 0.00 | 0.00 | 0.00 | 35 | 1012.9 |
| 20260503180036 | 22 | 171 | 6.4 | 19.3 | 0.00 | 0.00 | 0.00 | 34 | 1012.9 |
| 20260503175536 | 23 | 183 | 4.8 | 24.1 | 0.00 | 0.00 | 0.00 | 34 | 1012.9 |
| 20260503175036 | 23 | 203 | 11.3 | 24.1 | 0.00 | 0.00 | 0.00 | 33 | 1012.8 |
| 20260503174536 | 23 | 184 | 6.4 | 17.7 | 0.00 | 0.00 | 0.00 | 33 | 1012.7 |
| 20260503174036 | 23 | 187 | 8.0 | 27.4 | 0.00 | 0.00 | 0.00 | 33 | 1012.8 |
| 20260503173536 | 23 | 202 | 6.4 | 27.4 | 0.00 | 0.00 | 0.00 | 32 | 1012.7 |
| 20260503173039 | 24 | 200 | 1.6 | 19.3 | 0.00 | 0.00 | 0.00 | 32 | 1012.8 |
| 20260503172537 | 24 | 180 | 9.7 | 19.3 | 0.00 | 0.00 | 0.00 | 31 | 1012.7 |
| 20260503172035 | 24 | 211 | 4.8 | 20.9 | 0.00 | 0.00 | 0.00 | 30 | 1012.7 |
| 20260503171544 | 25 | 182 | 8.0 | 20.9 | 0.00 | 0.00 | 0.00 | 30 | 1012.8 |
| 20260503171034 | 25 | 200 | 11.3 | 20.9 | 0.00 | 0.00 | 0.00 | 29 | 1012.7 |
| 20260503170536 | 25 | 219 | 14.5 | 27.4 | 0.00 | 0.00 | 0.00 | 29 | 1012.8 |
| 20260503150526 | 26 | 183 | 16.1 | 41.8 | 0.00 | 0.00 | 0.00 | 26 | 1013.2 |
| 20260503131012 | 26 | 189 | 19.3 | 41.8 | 0.00 | 0.00 | 0.00 | 27 | 1014.6 |
| 20260503130510 | 26 | 224 | 22.5 | 45.1 | 0.00 | 0.00 | 0.00 | 26 | 1014.6 |
| 20260503110556 | 25 | 267 | 24.1 | 37.0 | 0.00 | 0.00 | 0.00 | 27 | 1015.7 |
| 20260503110109 | 23 | 217 | 16.1 | 41.8 | 0.00 | 0.00 | 0.00 | 28 | 1015.6 |
| 20260503081523 | 22 | 260 | 8.0 | 37.0 | 0.00 | 0.00 | 0.00 | 39 | 1016.9 |
| 20260503081026 | 21 | 227 | 19.3 | 38.6 | 0.00 | 0.00 | 0.00 | 40 | 1016.9 |
| 20260503080521 | 21 | 219 | 16.1 | 40.2 | 0.00 | 0.00 | 0.00 | 40 | 1017.0 |
| 20260503072513 | 20 | 184 | 9.7 | 24.1 | 0.00 | 0.00 | 0.00 | 44 | 1017.2 |
| 20260503072012 | 20 | 259 | 12.9 | 30.6 | 0.00 | 0.00 | 0.00 | 44 | 1017.2 |
| 20260503071516 | 19 | 238 | 17.7 | 37.0 | 0.00 | 0.00 | 0.00 | 44 | 1017.2 |
| 20260503071011 | 19 | 225 | 16.1 | 37.0 | 0.00 | 0.00 | 0.00 | 44 | 1017.2 |
| 20260503070509 | 19 | 194 | 12.9 | 35.4 | 0.00 | 0.00 | 0.00 | 43 | 1017.2 |
| 20260503060109 | 16 | 219 | 8.0 | 22.5 | 0.00 | 0.00 | 0.00 | 53 | 1017.0 |
| 20260503055047 | 16 | 153 | 9.7 | 22.5 | 0.00 | 0.00 | 0.00 | 55 | 1017.0 |
| 20260503054556 | 15 | 165 | 11.3 | 32.2 | 0.00 | 0.00 | 0.00 | 55 | 1017.1 |
| 20260503054045 | 15 | 155 | 14.5 | 32.2 | 0.00 | 0.00 | 0.00 | 55 | 1017.2 |
| 20260503053543 | 15 | 184 | 12.9 | 32.2 | 0.00 | 0.00 | 0.00 | 56 | 1017.2 |
| 20260503053042 | 15 | 191 | 8.0 | 25.7 | 0.00 | 0.00 | 0.00 | 57 | 1017.3 |
| 20260503052540 | 14 | 186 | 11.3 | 25.7 | 0.00 | 0.00 | 0.00 | 58 | 1017.3 |
| 20260503052039 | 14 | 206 | 12.9 | 22.5 | 0.00 | 0.00 | 0.00 | 58 | 1017.3 |
| 20260503051538 | 13 | 167 | 1.6 | 17.7 | 0.00 | 0.00 | 0.00 | 59 | 1017.3 |
| 20260503051036 | 13 | 165 | 3.2 | 25.7 | 0.00 | 0.00 | 0.00 | 60 | 1017.3 |
| 20260503050534 | 13 | 169 | 4.8 | 25.7 | 0.00 | 0.00 | 0.00 | 61 | 1017.4 |
| 20260503050039 | 13 | 199 | 3.2 | 17.7 | 0.00 | 0.00 | 0.00 | 61 | 1017.5 |
| 20260503045534 | 13 | 178 | 0.0 | 11.3 | 0.00 | 0.00 | 0.00 | 63 | 1017.5 |
| 20260503045032 | 12 | 150 | 1.6 | 16.1 | 0.00 | 0.00 | 0.00 | 64 | 1017.5 |
| 20260503044531 | 12 | 164 | 4.8 | 16.1 | 0.00 | 0.00 | 0.00 | 64 | 1017.5 |
| 20260503044027 | 12 | 165 | 3.2 | 14.5 | 0.00 | 0.00 | 0.00 | 66 | 1017.5 |
| 20260503043528 | 12 | 148 | 4.8 | 12.9 | 0.00 | 0.00 | 0.00 | 66 | 1017.5 |
| 20260503043024 | 11 | 160 | 1.6 | 11.3 | 0.00 | 0.00 | 0.00 | 68 | 1017.5 |
| 20260503042524 | 11 | 147 | 0.0 | 12.9 | 0.00 | 0.00 | 0.00 | 69 | 1017.5 |
| 20260503042022 | 11 | 157 | 1.6 | 14.5 | 0.00 | 0.00 | 0.00 | 70 | 1017.6 |
| 20260503041529 | 10 | 157 | 1.6 | 14.5 | 0.00 | 0.00 | 0.00 | 71 | 1017.6 |
| 20260503041018 | 10 | 158 | 0.0 | 1.6 | 0.00 | 0.00 | 0.00 | 72 | 1017.6 |
| 20260503040517 | 10 | 153 | 0.0 | 0.0 | 0.00 | 0.00 | 0.00 | 73 | 1017.6 |
| 20260503040017 | 10 | 144 | 0.0 | 0.0 | 0.00 | 0.00 | 0.00 | 74 | 1017.7 |
| 20260503035516 | 9 | 164 | 0.0 | 0.0 | 0.00 | 0.00 | 0.00 | 74 | 1017.7 |
| 20260503035016 | 9 | 149 | 0.0 | 0.0 | 0.00 | 0.00 | 0.00 | 74 | 1017.7 |
| 20260503034516 | 9 | 207 | 0.0 | 0.0 | 0.00 | 0.00 | 0.00 | 74 | 1017.7 |
| 20260503034015 | 9 | 202 | 0.0 | 0.0 | 0.00 | 0.00 | 0.00 | 74 | 1017.7 |